Location: La Comballaz
(46.3780°N, 7.0817°E)
Time: 05:10:01
(UTC+00:00)

SL-16 R/B - Pass Details

Date: 09 April 2020
Orbit: 985 x 1007 km, 99.5° (Epoch: 29 May)

Event Time Altitude Azimuth Distance (km) Brightness Sun altitude
Exits shadow 23:48:39 25° 75° (ENE) 1,906 4.1 -35.5°
Maximum altitude 23:49:45 26° 58° (ENE) 1,851 4.2 -35.5°
Drops below altitude 10° 23:54:45 10° 5° (N) 2,774 5.7 -35.4°
Sets 23:57:37 0° 353° (N) 3,724 6.5 -35.3°
